Regional Weather Roundup
Issued by NWS Goodland, KS

Home | Current Version | Previous Version | Graphics & Text | Print | Product List | Glossary On
Versions: 1 2 3 4 5 6 7 8 9 10 11 12 13 14 15 16 17 18 19 20 21 22 23 24 25 26 27 28 29 30 31 32 33 34 35 36 37 38 39 40 41 42 43 44 45 46 47 48 49 50
238
ASUS43 KGLD 230859
RWRGLD

GOODLAND FORECAST AREA HOURLY WEATHER ROUNDUP
NATIONAL WEATHER SERVICE GOODLAND KS
300 AM MDT WED AUG 23 2017

...OFFICIAL OBSERVATIONS...

CITY           SKY/WX    TMP DP  RH WIND       PRES   REMARKS
GOODLAND KS    CLEAR     57  48  72 S12       30.22R
HILL CITY KS   CLEAR     54  51  90 CALM      30.20F
IMPERIAL NEB   CLEAR     57  49  74 S7        30.20S
MCCOOK NEB     CLEAR     59  51  75 S7        30.19F
AKRON CO       CLEAR     60  52  74 S12       30.19F
BURLINGTON CO  CLEAR     58  52  80 S14       30.23S
LIMON CO       CLEAR     52  52 100 CALM      30.27S
$$

...UNOFFICIAL OBSERVATIONS...

CITY           SKY/WX    TMP DP  RH WIND       PRES   REMARKS
LENORA KS        N/A     58  32  37 SE7         N/A
NORTON KS      CLEAR     57  45  62 SE9       30.19S
TRENTON NEB      N/A     58  32  37 S6          N/A
KIT CARSON CO    N/A     56  51  85 CALM        N/A
YUMA CO        FAIR      55  41  58 S8        30.19F
$$




USA.gov is the U.S. government's official web portal to all federal, state and local government web resources and services.